Weather reports worldwide

Advertisment
Bala, United Kingdom (3409): temperature & dewpoint: 19.06.2017 23:00:00 - 25.06.2017 23:00:00 (BST)Bala, United Kingdom (3409): temperature 5cm: 19.06.2017 23:00:00 - 25.06.2017 23:00:00 (BST)Bala, United Kingdom (3409): temperature -20cm & temperature -100cm: 19.06.2017 23:00:00 - 25.06.2017 23:00:00 (BST)Bala, United Kingdom (3409): wind speed & gusts: 19.06.2017 23:00:00 - 25.06.2017 23:00:00 (BST)Bala, United Kingdom (3409): wind direction: 19.06.2017 23:00:00 - 25.06.2017 23:00:00 (BST)Bala, United Kingdom (3409): reduced air pressure: 19.06.2017 23:00:00 - 25.06.2017 23:00:00 (BST)Bala, United Kingdom (3409): visibility: 19.06.2017 23:00:00 - 25.06.2017 23:00:00 (BST)Bala, United Kingdom (3409): sunshine duration: 19.06.2017 23:00:00 - 25.06.2017 23:00:00 (BST)Bala, United Kingdom (3409): precipitation: 19.06.2017 23:00:00 - 25.06.2017 23:00:00 (BST)
Date & Time tt [°C] td [°C] tt 5cm [°C] tt -20cm [°C] tt -100cm [°C] ff [km/h] ff [kn] fx [km/h] fx [kn] dd ppp [hPa] vv [km] sd [min] rr [mm]
25.06.2017 23:00:00 11,1 8,4 - - - 4 2 - - W 1014,7 - 0 0,0
25.06.2017 22:00:00 12,7 7,8 - - - 4 2 - - W 1014,4 - 0 0,0
25.06.2017 21:00:00 13,4 7,5 - - - 5 3 - - W 1014,0 - 6 0,0
25.06.2017 20:00:00 14,2 7,6 - - - 8 4 - - WNW 1013,5 - 6 0,0
25.06.2017 19:00:00 14,6 8,3 - - - 8 4 - - W 1013,3 - 0 0,0
25.06.2017 18:00:00 14,8 9,7 - - - 9 5 - - WNW 1013,0 - 0 0,0
25.06.2017 17:00:00 14,4 11,1 - - - 9 5 - - NW 1012,7 - 0 0,0
25.06.2017 16:00:00 14,8 12,3 - - - 5 3 - - WNW 1012,3 - 0 0,0
25.06.2017 15:00:00 14,1 11,9 - - - 9 5 - - NW 1012,0 - 0 0,0
25.06.2017 14:00:00 15,2 13,1 - - - 11 6 - - W 1011,3 - 0 0,2
25.06.2017 13:00:00 14,2 13,5 - - - 16 9 - - SW 1011,1 - 0 1,0
25.06.2017 12:00:00 14,7 13,9 - - - 15 8 - - WSW 1010,9 - 0 0,8
25.06.2017 11:00:00 15,4 14,4 - - - 13 7 - - W 1010,6 - 0 1,0
25.06.2017 10:00:00 14,0 13,4 - 16,7 15,4 13 7 - - WSW 1010,4 0,3 0 0,6
25.06.2017 09:00:00 13,1 12,7 - - - 9 5 - - W 1010,4 - 0 0,4
25.06.2017 08:00:00 12,3 11,6 - - - 13 7 - - WSW 1010,5 - 0 0,2
25.06.2017 07:00:00 12,2 11,8 - - - 13 7 - - WSW 1010,6 - 0 0,0
25.06.2017 06:00:00 11,8 10,5 - - - 15 8 - - WSW 1010,7 - 0 0,0
25.06.2017 05:00:00 12,1 10,1 - - - 13 7 - - W 1010,9 - 0 0,0
25.06.2017 04:00:00 12,0 10,3 - - - 11 6 - - W 1011,1 - 0 0,0
25.06.2017 03:00:00 12,2 9,9 - - - 13 7 - - WSW 1011,0 - 0 0,0
25.06.2017 02:00:00 12,1 9,8 - - - 16 9 - - W 1011,2 - 0 0,0
25.06.2017 01:00:00 12,7 10,9 - - - 9 5 - - W 1011,3 - - 0,0
25.06.2017 00:00:00 13,7 10,7 - - - 13 7 - - W 1011,7 - 0 0,0
24.06.2017 23:00:00 14,4 12,1 - - - 15 8 - - WSW 1011,5 - 0 0,0
24.06.2017 22:00:00 14,6 13,1 - - - 13 7 - - WSW 1011,2 0,3 0 0,0
24.06.2017 21:00:00 14,0 12,6 - - - 22 12 - - SW 1011,4 - 0 0,0
24.06.2017 20:00:00 15,0 12,8 - - - 18 10 - - WSW 1011,3 - 0 0,0
24.06.2017 19:00:00 15,8 12,1 - - - 16 9 - - WSW 1011,0 - 0 0,0
24.06.2017 18:00:00 16,0 12,7 - - - 16 9 - - WSW 1011,4 - 0 0,0
24.06.2017 17:00:00 14,7 12,8 - - - 22 12 - - SW 1011,9 - 0 0,0
24.06.2017 16:00:00 14,7 12,2 - - - 16 9 - - SW 1012,3 - 0 0,0
24.06.2017 15:00:00 14,7 12,2 - - - 21 11 - - WSW 1012,7 - 0 0,0
24.06.2017 14:00:00 14,4 12,1 - - - 18 10 - - WSW 1012,9 - 0 0,0
24.06.2017 13:00:00 14,2 12,4 - - - 18 10 - - WSW 1013,1 - 0 0,0
24.06.2017 12:00:00 14,0 12,3 - - - 16 9 - - WSW 1013,0 - 0 0,0
24.06.2017 11:00:00 13,7 11,6 - - - 11 6 - - WSW 1013,1 - 0 0,0
24.06.2017 10:00:00 13,7 11,3 - 16,9 15,4 15 8 - - WSW 1012,9 - 0 0,0
24.06.2017 09:00:00 13,4 11,2 - - - 18 10 - - WSW 1013,1 - 0 0,0
24.06.2017 08:00:00 13,4 11,2 - - - 16 9 - - W 1013,0 - 0 0,0
24.06.2017 07:00:00 13,2 11,1 - - - 13 7 - - W 1012,7 - 0 0,0
24.06.2017 06:00:00 13,3 12,2 - - - 5 3 - - W 1012,7 - 0 0,0
24.06.2017 05:00:00 12,7 11,2 - - - 8 4 - - WNW 1012,7 - 0 0,0
24.06.2017 04:00:00 13,6 12,0 - - - 11 6 - - W 1012,8 - 0 0,0
24.06.2017 03:00:00 14,5 13,3 - - - 9 5 - - W 1012,8 - 0 0,0
24.06.2017 02:00:00 14,5 14,0 - - - 15 8 - - W 1012,5 - 0 0,0
24.06.2017 01:00:00 14,7 14,4 - - - 18 10 - - WSW 1012,5 - - 0,2
24.06.2017 00:00:00 14,8 14,3 - - - 21 11 - - WSW 1012,7 - 0 0,4
23.06.2017 23:00:00 14,6 14,1 - - - 28 15 - - SW 1013,1 - 0 0,2
23.06.2017 22:00:00 14,8 14,3 - - - 28 15 - - WSW 1013,0 - 0 0,0
23.06.2017 21:00:00 14,7 14,2 - - - 24 13 - - WSW 1013,1 - 0 0,0
23.06.2017 20:00:00 14,7 14,0 - - - 24 13 - - WSW 1013,3 - 0 0,0
23.06.2017 19:00:00 14,7 14,0 - - - 29 16 54 29 SW 1013,3 - 0 0,0
23.06.2017 18:00:00 14,6 14,0 - - - 35 19 52 28 SW 1013,4 - 0 0,4
23.06.2017 17:00:00 14,5 13,9 - - - 34 18 50 27 SW 1013,8 - 0 -
23.06.2017 16:00:00 14,5 13,9 - - - 28 15 - - SW 1013,9 - 0 0,4
23.06.2017 15:00:00 14,2 13,7 - - - 26 14 - - SW 1014,2 - 0 0,6
23.06.2017 14:00:00 14,4 13,6 - - - 26 14 - - SW 1014,2 - 0 0,8
23.06.2017 13:00:00 14,3 13,4 - - - 26 14 50 27 SW 1014,1 - 0 0,6
23.06.2017 12:00:00 14,3 13,5 - - - 31 17 50 27 SW 1013,7 - 6 0,2
23.06.2017 11:00:00 14,2 13,0 - - - 39 21 55 30 WSW 1013,4 - 0 0,2
23.06.2017 10:00:00 14,2 13,3 - 17,2 15,2 35 19 57 31 WSW 1013,1 - 0 0,0
23.06.2017 09:00:00 13,7 12,2 - - - 37 20 59 32 WSW 1012,8 - 0 0,2
23.06.2017 08:00:00 14,1 13,1 - - - 35 19 67 36 WSW 1012,2 - 0 0,0
23.06.2017 07:00:00 14,3 12,5 - - - 21 11 55 30 WSW 1012,0 - 0 0,0
23.06.2017 06:00:00 14,3 11,2 - - - 29 16 54 29 WSW 1012,0 - 0 0,0
23.06.2017 05:00:00 14,0 11,6 - - - 24 13 50 27 WSW 1012,3 - 0 0,0
23.06.2017 04:00:00 13,8 11,3 - - - 28 15 48 26 WSW 1012,5 - 0 0,0
23.06.2017 03:00:00 13,9 12,2 - - - 22 12 - - SW 1013,0 - 0 0,0
23.06.2017 02:00:00 13,8 11,4 - - - 15 8 - - SW 1013,8 - 0 0,0
23.06.2017 01:00:00 13,7 11,1 - - - 21 11 - - SW 1013,8 - - 0,0
23.06.2017 00:00:00 13,8 11,2 - - - 24 13 - - SW 1014,0 - 0 0,0
22.06.2017 23:00:00 13,7 11,2 - - - 21 11 - - SW 1014,1 - 0 0,0
22.06.2017 22:00:00 14,2 11,3 - - - 22 12 - - SW 1013,8 0,3 0 0,0
22.06.2017 21:00:00 14,9 11,8 - - - 13 7 - - WSW 1013,7 - 0 0,0
22.06.2017 20:00:00 15,2 11,8 - - - 13 7 - - WSW 1013,9 - 6 0,0
22.06.2017 19:00:00 15,2 11,3 - - - 22 12 - - WSW 1013,9 - 0 0,0
22.06.2017 18:00:00 16,2 11,3 - - - 16 9 - - WSW 1013,2 - 6 0,0
22.06.2017 17:00:00 15,7 11,6 - - - 18 10 - - WSW 1013,3 - 0 0,0
22.06.2017 16:00:00 16,0 11,1 - - - 11 6 - - WNW 1013,4 - 0 0,0
22.06.2017 15:00:00 16,8 12,5 - - - 11 6 - - WSW 1012,8 - 0 0,0
22.06.2017 14:00:00 17,3 13,0 - - - 13 7 - - W 1012,4 - 0 0,0
22.06.2017 13:00:00 16,1 13,7 - - - 5 3 - - WNW 1012,4 - 0 0,0
22.06.2017 12:00:00 15,0 13,5 - - - 4 2 - - NW 1012,3 - 0 0,6
22.06.2017 11:00:00 14,8 14,1 - - - 4 2 - - NW 1011,7 - 0 0,6
22.06.2017 10:00:00 15,3 13,9 - 17,7 15,0 8 4 - - W 1011,0 4,5 0 0,0
22.06.2017 09:00:00 15,2 13,3 - - - 13 7 - - SW 1010,5 - 0 0,0
22.06.2017 08:00:00 15,1 13,1 - - - 11 6 - - WSW 1010,5 - 0 0,0
22.06.2017 07:00:00 15,0 13,0 - - - 16 9 - - WSW 1010,3 - 0 0,0
22.06.2017 06:00:00 14,8 12,7 - - - 22 12 - - SW 1010,0 - 0 0,0
22.06.2017 05:00:00 15,1 12,7 - - - 15 8 - - W 1010,0 - 0 0,0
22.06.2017 04:00:00 15,3 13,1 - - - 16 9 - - W 1010,4 - 0 0,0
22.06.2017 03:00:00 15,5 14,1 - - - 16 9 - - W 1010,3 - 0 0,0
22.06.2017 02:00:00 15,9 14,7 - - - 18 10 - - W 1010,3 - 0 0,0
22.06.2017 01:00:00 16,5 15,9 - - - 11 6 - - W 1010,6 - - 0,0
22.06.2017 00:00:00 17,9 16,9 - - - 16 9 - - WSW 1010,2 - 0 0,0
21.06.2017 23:00:00 20,2 17,3 - - - 15 8 - - WSW 1010,1 - 0 0,0
21.06.2017 22:00:00 19,9 17,5 - - - 11 6 - - WSW 1010,2 0,3 0 0,0
21.06.2017 21:00:00 21,5 18,1 - - - 15 8 - - WSW 1010,0 - 24 0,0
21.06.2017 20:00:00 23,4 18,2 - - - 15 8 - - WSW 1010,1 - 54 0,0
21.06.2017 19:00:00 24,2 18,2 - - - 16 9 - - WSW 1010,3 - 30 0,0
21.06.2017 18:00:00 26,5 19,3 - - - 13 7 - - S 1010,2 - 42 0,0
21.06.2017 17:00:00 26,5 18,6 - - - 8 4 - - S 1010,4 - 12 0,0
21.06.2017 16:00:00 25,3 18,3 - - - 9 5 - - S 1010,8 - 0 0,0
21.06.2017 15:00:00 25,3 18,2 - - - 5 3 - - SW 1012,3 - 24 0,0
21.06.2017 14:00:00 26,2 17,3 - - - 13 7 - - SE 1011,8 - 60 0,0
21.06.2017 13:00:00 24,9 17,9 - - - 15 8 - - SE 1012,8 - 36 0,0
21.06.2017 12:00:00 25,6 17,6 - - - 9 5 - - ESE 1013,5 - 42 0,0
21.06.2017 11:00:00 24,2 18,2 - - - 4 2 - - SE 1014,3 - 48 0,0
21.06.2017 10:00:00 22,0 18,0 22,2 17,2 14,7 5 3 - - ENE 1014,4 2,7 18 0,0
21.06.2017 09:00:00 20,7 17,3 - - - 4 2 - - NW 1015,3 - 18 0,0
21.06.2017 08:00:00 19,8 16,9 - - - 2 1 - - ENE 1015,5 - 48 0,0
21.06.2017 07:00:00 18,3 16,7 - - - 2 1 - - N 1015,8 - 0 0,0
21.06.2017 06:00:00 17,2 16,1 - - - 4 2 - - SSW 1015,8 - 0 0,0
21.06.2017 05:00:00 15,9 14,9 - - - 0 0 - - N 1016,9 - 0 0,0
21.06.2017 04:00:00 17,5 16,0 - - - 4 2 - - SSE 1016,8 - 0 0,0
21.06.2017 03:00:00 17,5 16,1 - - - 2 1 - - ESE 1017,1 - 0 0,0
21.06.2017 02:00:00 17,7 16,0 - - - 9 5 - - ENE 1016,9 - 0 0,0
21.06.2017 01:00:00 17,9 16,0 - - - 8 4 - - NE 1017,0 - - 0,0
21.06.2017 00:00:00 18,9 16,2 - - - 11 6 - - E 1017,3 - 0 0,0
20.06.2017 23:00:00 20,0 16,6 - - - 9 5 - - ESE 1017,6 - 0 0,0
20.06.2017 22:00:00 20,0 16,6 - - - 5 3 - - E 1017,6 - 0 0,0
20.06.2017 21:00:00 21,6 17,4 - - - 8 4 - - ENE 1017,5 - 0 0,0
20.06.2017 20:00:00 23,2 18,1 - - - 13 7 - - ENE 1016,9 - 6 0,0
20.06.2017 19:00:00 24,7 17,8 - - - 11 6 - - E 1016,6 - 6 0,0
20.06.2017 18:00:00 26,1 18,3 - - - 9 5 - - E 1016,6 - 18 0,0
20.06.2017 17:00:00 26,0 18,4 - - - 13 7 - - E 1016,9 - 18 0,0
20.06.2017 16:00:00 24,9 18,6 - - - 11 6 - - ENE 1017,6 - 6 0,0
20.06.2017 15:00:00 25,0 18,4 - - - 13 7 - - ENE 1018,0 - 30 0,0
20.06.2017 14:00:00 25,0 17,9 - - - 9 5 - - NE 1018,1 - 60 0,0
20.06.2017 13:00:00 24,5 18,3 - - - 9 5 - - ENE 1018,6 - 60 0,0
20.06.2017 12:00:00 23,9 17,5 - - - 9 5 - - ENE 1018,9 - 60 0,0
20.06.2017 11:00:00 21,5 16,0 - - - 8 4 - - ENE 1019,3 - 54 0,0
20.06.2017 10:00:00 20,0 15,3 20,4 16,7 14,4 5 3 - - E 1019,7 1,5 60 0,0
20.06.2017 09:00:00 17,8 14,4 - - - 5 3 - - ENE 1020,0 - 18 0,0
20.06.2017 08:00:00 16,4 14,4 - - - 5 3 - - E 1020,1 - 42 0,0
20.06.2017 07:00:00 14,1 13,5 - - - 2 1 - - E 1020,3 - 0 0,0
20.06.2017 06:00:00 12,7 12,3 - - - 0 0 - - N 1020,3 - 0 0,0
20.06.2017 05:00:00 12,8 12,4 - - - 2 1 - - ENE 1020,2 - 0 0,0
20.06.2017 04:00:00 12,9 12,4 - - - 2 1 - - NNE 1020,2 - 0 0,0
20.06.2017 03:00:00 13,4 12,8 - - - 2 1 - - N 1020,5 - 0 0,0
20.06.2017 02:00:00 13,6 12,8 - - - 4 2 - - E 1020,6 - 0 0,0
20.06.2017 01:00:00 13,8 12,3 - - - 2 1 - - SE 1020,8 - - 0,0
20.06.2017 00:00:00 15,9 13,2 - - - 0 0 - - N 1020,9 - 0 0,0
19.06.2017 23:00:00 17,3 13,4 - - - 4 2 - - NE 1020,6 - 0 0,0

tt = temperature
td = dewpoint
tt 5cm = temperature 5cm
tt -20cm = temperature -20cm
tt -100cm = temperature -100cm
ff = wind speed
fx = gusts
dd = wind direction
ppp = reduced air pressure
vv = visibility
sd = sunshine duration
rr = precipitation

Next stations